When you browse on this site, cookies collect data to enhance your experience and personalize the content and advertising you see.
Visit our Privacy Policy to learn more. By continuing to use the site, you agree to this use of cookies and data.

Meteo pe oră la Śrem

Astăzi, 11 Iulie, Sâmbătă

Timp Temperatura Precipitaţii Vânt Presiune Umiditate
00:00 +14°C° 0 mm 4 m/s 754 mmHg 88%
01:00 +14°C° 0 mm 2 m/s 755 mmHg 91%
02:00 +12°C° 0 mm 3 m/s 755 mmHg 91%
03:00 +12°C° 0 mm 3 m/s 755 mmHg 90%
04:00 +11°C° 0 mm 3 m/s 755 mmHg 90%
05:00 +12°C° 0 mm 3 m/s 756 mmHg 86%
06:00 +13°C° 0 mm 3 m/s 757 mmHg 82%
07:00 +14°C° 0 mm 3 m/s 758 mmHg 77%
08:00 +14°C° 0 mm 3 m/s 758 mmHg 72%
09:00 +15°C° 0 mm 4 m/s 758 mmHg 68%
10:00 +17°C° 0 mm 4 m/s 758 mmHg 64%
11:00 +17°C° 0 mm 4 m/s 758 mmHg 61%
12:00 +18°C° 0 mm 3 m/s 759 mmHg 57%
13:00 +18°C° 0 mm 3 m/s 759 mmHg 54%
14:00 +19°C° 0 mm 3 m/s 759 mmHg 53%
15:00 +19°C° 0 mm 3 m/s 758 mmHg 52%
16:00 +19°C° 0 mm 2 m/s 758 mmHg 51%
17:00 +19°C° 0 mm 2 m/s 758 mmHg 56%
18:00 +18°C° 0 mm 2 m/s 759 mmHg 60%
19:00 +18°C° 0 mm 1 m/s 759 mmHg 65%
20:00 +16°C° 0 mm 2 m/s 759 mmHg 66%
21:00 +15°C° 0 mm 2 m/s 759 mmHg 68%
22:00 +14°C° 0 mm 2 m/s 759 mmHg 69%
23:00 +13°C° 0 mm 2 m/s 759 mmHg 72%

Mâine, 12 Iulie, Duminică

Timp Temperatura Precipitaţii Vânt Presiune Umiditate
00:00 +13°C° 0 mm 2 m/s 760 mmHg 75%
01:00 +12°C° 0 mm 2 m/s 760 mmHg 78%
02:00 +12°C° 0 mm 2 m/s 760 mmHg 82%
03:00 +10°C° 0 mm 2 m/s 760 mmHg 85%
04:00 +10°C° 0 mm 2 m/s 760 mmHg 89%
05:00 +11°C° 0 mm 3 m/s 760 mmHg 84%
06:00 +13°C° 0 mm 3 m/s 760 mmHg 79%
07:00 +14°C° 0 mm 3 m/s 760 mmHg 74%
08:00 +17°C° 0 mm 3 m/s 761 mmHg 69%
09:00 +18°C° 0 mm 4 m/s 761 mmHg 63%
10:00 +19°C° 0 mm 4 m/s 761 mmHg 58%
11:00 +20°C° 0 mm 4 m/s 761 mmHg 55%
12:00 +20°C° 0 mm 4 m/s 761 mmHg 53%
13:00 +21°C° 0 mm 4 m/s 761 mmHg 50%
14:00 +21°C° 0 mm 4 m/s 761 mmHg 50%
15:00 +21°C° 0 mm 4 m/s 760 mmHg 49%
16:00 +21°C° 0 mm 3 m/s 760 mmHg 48%
17:00 +20°C° 0 mm 3 m/s 760 mmHg 53%
18:00 +19°C° 0 mm 3 m/s 760 mmHg 59%
19:00 +18°C° 0 mm 2 m/s 760 mmHg 64%
20:00 +16°C° 0 mm 2 m/s 760 mmHg 68%
21:00 +15°C° 0 mm 2 m/s 760 mmHg 72%
22:00 +14°C° 0 mm 2 m/s 761 mmHg 75%
23:00 +13°C° 0 mm 1 m/s 761 mmHg 79%

Poimâine, 13 Iulie, Luni

Timp Temperatura Precipitaţii Vânt Presiune Umiditate
00:00 +12°C° 0 mm 1 m/s 761 mmHg 82%
01:00 +11°C° 0 mm 0 m/s 761 mmHg 86%
02:00 +12°C° 0 mm 1 m/s 760 mmHg 87%
03:00 +11°C° 0 mm 1 m/s 760 mmHg 88%
04:00 +11°C° 0 mm 1 m/s 760 mmHg 89%
05:00 +13°C° 0 mm 2 m/s 760 mmHg 84%
06:00 +14°C° 0 mm 2 m/s 760 mmHg 79%
07:00 +16°C° 0 mm 2 m/s 760 mmHg 74%
08:00 +17°C° 0 mm 2 m/s 760 mmHg 69%
09:00 +18°C° 0 mm 3 m/s 760 mmHg 64%
10:00 +19°C° 0 mm 3 m/s 760 mmHg 59%
11:00 +20°C° 0 mm 3 m/s 759 mmHg 57%
12:00 +20°C° 0 mm 3 m/s 759 mmHg 56%
13:00 +21°C° 0 mm 3 m/s 759 mmHg 55%
14:00 +21°C° 0 mm 3 m/s 759 mmHg 55%
15:00 +21°C° 0 mm 3 m/s 758 mmHg 55%
16:00 +21°C° 0 mm 3 m/s 758 mmHg 55%
17:00 +21°C° 0 mm 2 m/s 758 mmHg 59%
18:00 +20°C° 0 mm 2 m/s 757 mmHg 63%
19:00 +20°C° 0 mm 1 m/s 757 mmHg 67%
20:00 +19°C° 0 mm 1 m/s 757 mmHg 68%
21:00 +18°C° 0 mm 1 m/s 757 mmHg 69%
22:00 +15°C° 0 mm 1 m/s 757 mmHg 70%
23:00 +15°C° 0 mm 1 m/s 757 mmHg 72%

14 Iulie, Marţi

Timp Temperatura Precipitaţii Vânt Presiune Umiditate
00:00 +14°C° 0 mm 1 m/s 757 mmHg 75%
01:00 +14°C° 0 mm 1 m/s 757 mmHg 77%
02:00 +13°C° 0 mm 1 m/s 757 mmHg 79%
03:00 +13°C° 0 mm 1 m/s 757 mmHg 81%
04:00 +13°C° 0 mm 1 m/s 756 mmHg 82%
05:00 +14°C° 0 mm 1 m/s 756 mmHg 78%
06:00 +16°C° 0 mm 1 m/s 756 mmHg 73%
07:00 +19°C° 0 mm 1 m/s 756 mmHg 69%
08:00 +20°C° 0 mm 1 m/s 756 mmHg 64%
09:00 +20°C° 0 mm 2 m/s 756 mmHg 60%
10:00 +23°C° 0 mm 2 m/s 756 mmHg 55%
11:00 +23°C° 0 mm 2 m/s 755 mmHg 54%
12:00 +23°C° 0 mm 2 m/s 755 mmHg 53%
13:00 +24°C° 0 mm 2 m/s 755 mmHg 51%
14:00 +24°C° 0 mm 2 m/s 754 mmHg 52%
15:00 +24°C° 0 mm 2 m/s 754 mmHg 53%
16:00 +24°C° 0 mm 2 m/s 754 mmHg 54%
17:00 +23°C° 0 mm 2 m/s 754 mmHg 59%
18:00 +21°C° 0 mm 2 m/s 754 mmHg 63%
19:00 +20°C° 0 mm 2 m/s 754 mmHg 68%
20:00 +19°C° 0 mm 2 m/s 754 mmHg 68%
21:00 +18°C° 0 mm 2 m/s 754 mmHg 68%
22:00 +16°C° 0 mm 3 m/s 754 mmHg 69%
23:00 +16°C° 0 mm 3 m/s 753 mmHg 70%

15 Iulie, Miercuri

Timp Temperatura Precipitaţii Vânt Presiune Umiditate
00:00 +16°C° 0 mm 3 m/s 753 mmHg 71%
01:00 +16°C° 0 mm 3 m/s 753 mmHg 72%
02:00 +14°C° 0 mm 3 m/s 753 mmHg 74%
03:00 +14°C° 0 mm 3 m/s 753 mmHg 75%
04:00 +15°C° 0 mm 2 m/s 752 mmHg 77%
05:00 +16°C° 0 mm 2 m/s 752 mmHg 76%
06:00 +17°C° 0 mm 2 m/s 752 mmHg 74%
07:00 +19°C° 0 mm 2 m/s 752 mmHg 73%
08:00 +21°C° 0 mm 3 m/s 752 mmHg 67%
09:00 +22°C° 0 mm 3 m/s 751 mmHg 62%
10:00 +25°C° 0 mm 3 m/s 751 mmHg 56%
11:00 +26°C° 0.1 mm 3 m/s 751 mmHg 54%
12:00 +26°C° 0.1 mm 3 m/s 751 mmHg 52%
13:00 +27°C° 0.1 mm 4 m/s 750 mmHg 49%
14:00 +27°C° 0 mm 4 m/s 750 mmHg 50%
15:00 +27°C° 0 mm 4 m/s 750 mmHg 51%
16:00 +26°C° 0 mm 4 m/s 750 mmHg 52%
17:00 +23°C° 0.4 mm 4 m/s 750 mmHg 63%
18:00 +21°C° 0.4 mm 3 m/s 750 mmHg 75%
19:00 +18°C° 0.4 mm 3 m/s 750 mmHg 87%
20:00 +18°C° 0 mm 3 m/s 751 mmHg 86%
21:00 +18°C° 0 mm 3 m/s 751 mmHg 86%
22:00 +17°C° 0 mm 4 m/s 751 mmHg 85%
23:00 +17°C° 0 mm 3 m/s 752 mmHg 86%

16 Iulie, Joi

Timp Temperatura Precipitaţii Vânt Presiune Umiditate
00:00 +16°C° 0 mm 3 m/s 752 mmHg 87%
01:00 +14°C° 0 mm 3 m/s 752 mmHg 88%
02:00 +14°C° 0 mm 3 m/s 752 mmHg 89%
03:00 +15°C° 0 mm 2 m/s 752 mmHg 90%
04:00 +15°C° 0 mm 2 m/s 752 mmHg 91%
05:00 +14°C° 0.6 mm 3 m/s 752 mmHg 91%
06:00 +14°C° 0.6 mm 3 m/s 752 mmHg 91%
07:00 +14°C° 0.6 mm 3 m/s 752 mmHg 92%
08:00 +15°C° 0.2 mm 4 m/s 752 mmHg 85%
09:00 +17°C° 0.2 mm 4 m/s 752 mmHg 79%
10:00 +18°C° 0.2 mm 4 m/s 752 mmHg 73%
11:00 +19°C° 0.2 mm 5 m/s 752 mmHg 68%
12:00 +20°C° 0.2 mm 5 m/s 752 mmHg 64%
13:00 +21°C° 0.2 mm 5 m/s 752 mmHg 60%
14:00 +21°C° 0.1 mm 5 m/s 752 mmHg 58%
15:00 +21°C° 0.1 mm 5 m/s 752 mmHg 56%
16:00 +22°C° 0.1 mm 5 m/s 752 mmHg 54%
17:00 +21°C° 0 mm 4 m/s 752 mmHg 59%
18:00 +20°C° 0 mm 4 m/s 752 mmHg 63%
19:00 +18°C° 0 mm 3 m/s 752 mmHg 67%
20:00 +17°C° 0 mm 3 m/s 752 mmHg 69%
21:00 +16°C° 0 mm 3 m/s 752 mmHg 71%
22:00 +14°C° 0 mm 3 m/s 752 mmHg 73%
23:00 +14°C° 0 mm 3 m/s 752 mmHg 78%
Arată mai mult